Frenchville, ME

12:52 AM EST on February 25, 2018 (GMT -0500)
Northern Aroostook Regional

Weather History for KFVE - November, 2011

Change the Weather History Date:

Saturday, November 12, 2011

  Actual Average Record
Temperature  
Mean Temperature 32 °F 32 °F  
Max Temperature 37 °F 38 °F 53 °F (2010)
Min Temperature 26 °F 26 °F 14 °F (1999)
Degree Days  
Heating Degree Days 33    
Month to date heating degree days 306  
Since 1 July heating degree days 1322  
Cooling Degree Days 0    
Month to date cooling degree days 0  
Year to date cooling degree days 87  
Moisture  
Dew Point 27 °F    
Average Humidity 83    
Maximum Humidity 100    
Minimum Humidity 54    
Precipitation  
Precipitation 0.02 in 0.09 in 0.42 in (2006)
Month to date precipitation 1.24 1.10  
Year to date precipitation 38.54 29.22  
Sea Level Pressure  
Sea Level Pressure 29.72 in    
Wind  
Wind Speed 12 mph (SW)    
Max Wind Speed 25 mph    
Max Gust Speed 35 mph    
Visibility 6 miles    
Events Snow    
T = Trace of Precipitation, MM = Missing Value Source: NWS Daily Summary

Daily Weather History Graph

Daily Weather History Graph

Search for Another Location

Airport or City:

Trip Planner

Search our weather history database for the weather conditions in past years. The results will help you decide how hot, cold, wet, or windy it might be!

Date:

Astronomy

Nov. 12, 2011 Rise Set
Actual Time 6:32 AM EST 4:01 PM EST
Civil Twilight 5:59 AM EST 4:34 PM EST
Nautical Twilight 5:22 AM EST 5:11 PM EST
Astronomical Twilight 4:46 AM EST 5:47 PM EST
Moon 5:06 PM EST (11/12) 8:19 AM EST (11/12)
Length of Visible Light 10h 35m
Length of Day
9h 28m
Full, 97% of the Moon is Illuminated
Nov 12
Full
Nov 18
Last Quarter
Nov 25
New
Dec 2
First Quarter
Dec 10
Full

Hourly Weather History & Observations

Time (EST) Temp. Windchill Dew Point Humidity Pressure Visibility Wind Dir Wind Speed Gust Speed Precip Events Conditions
12:53 AM 30.0 °F 17.5 °F 24.1 °F 79% 29.44 in 10.0 mi West 19.6 mph 28.8 mph N/A   Overcast
1:53 AM 28.9 °F 18.2 °F 24.1 °F 82% 29.49 in 10.0 mi West 13.8 mph 24.2 mph N/A   Overcast
2:35 AM 28.4 °F 14.7 °F 24.8 °F 86% 29.50 in 2.0 mi WNW 21.9 mph 27.6 mph 0.00 in Snow Light Snow
2:38 AM 28.4 °F 15.8 °F 24.8 °F 86% 29.50 in 1.5 mi West 18.4 mph 27.6 mph 0.00 in Snow Light Snow
2:47 AM 28.4 °F 16.6 °F 24.8 °F 86% 29.50 in 2.0 mi WNW 16.1 mph 31.1 mph 0.00 in Snow Light Snow
2:53 AM 28.0 °F 15.3 °F 25.0 °F 88% 29.53 in 6.0 mi WNW 18.4 mph - 0.00 in Snow Light Snow
3:11 AM 28.4 °F 17.0 °F 24.8 °F 86% 29.52 in 9.0 mi West 15.0 mph - 0.00 in   Overcast
3:53 AM 28.9 °F 16.5 °F 21.0 °F 72% 29.57 in 10.0 mi WNW 18.4 mph 27.6 mph 0.00 in   Overcast
4:53 AM 28.9 °F 16.5 °F 17.1 °F 61% 29.62 in 10.0 mi WNW 18.4 mph 26.5 mph N/A   Overcast
5:53 AM 27.0 °F 13.9 °F 16.0 °F 63% 29.68 in 10.0 mi West 18.4 mph 28.8 mph N/A   Mostly Cloudy
6:53 AM 26.1 °F 14.0 °F 16.0 °F 66% 29.71 in 10.0 mi WNW 15.0 mph - N/A   Clear
7:53 AM 28.4 °F 23.3 °F 17.6 °F 64% 29.71 in 10.0 mi West 4.6 mph - N/A   Overcast
8:53 AM 30.0 °F 21.1 °F 19.0 °F 64% 29.74 in 10.0 mi WSW 10.4 mph - N/A   Overcast
9:53 AM 30.9 °F 21.7 °F 19.9 °F 64% 29.76 in 10.0 mi WSW 11.5 mph 21.9 mph N/A   Overcast
10:53 AM 33.1 °F 22.2 °F 21.0 °F 61% 29.76 in 10.0 mi WSW 17.3 mph 25.3 mph N/A   Overcast
11:53 AM 35.1 °F 24.8 °F 21.0 °F 57% 29.75 in 10.0 mi SW 17.3 mph 21.9 mph N/A   Scattered Clouds
12:53 PM 37.0 °F 28.9 °F 21.9 °F 54% 29.75 in 10.0 mi SW 12.7 mph 23.0 mph N/A   Overcast
1:53 PM 35.1 °F 25.2 °F 23.0 °F 61% 29.76 in 10.0 mi SSW 16.1 mph 19.6 mph N/A   Overcast
2:53 PM 35.1 °F 25.2 °F 25.0 °F 67% 29.77 in 9.0 mi SW 16.1 mph - N/A   Overcast
3:22 PM 35.6 °F 27.5 °F 26.6 °F 70% 29.75 in 6.0 mi SSW 11.5 mph 17.3 mph 0.00 in   Haze
3:53 PM 34.0 °F 26.0 °F 28.9 °F 82% 29.79 in 1.2 mi SSW 10.4 mph - 0.00 in Snow Light Snow
4:21 PM 32.0 °F 24.8 °F 30.2 °F 93% 29.77 in 1.2 mi SSW 8.1 mph - 0.00 in Snow Light Snow
4:26 PM 32.0 °F 25.6 °F 30.2 °F 93% 29.77 in 1.8 mi SSW 6.9 mph - 0.00 in Snow Light Snow
4:35 PM 32.0 °F 25.6 °F 30.2 °F 93% 29.77 in 2.0 mi South 6.9 mph - 0.00 in Snow Light Snow
4:53 PM 32.0 °F 24.8 °F 32.0 °F 100% 29.80 in 1.8 mi South 8.1 mph - 0.01 in Snow Light Snow
5:10 PM 32.0 °F 25.6 °F 32.0 °F 100% 29.77 in 2.0 mi South 6.9 mph - 0.00 in Snow Light Snow
5:17 PM 32.0 °F 25.6 °F 32.0 °F 100% 29.77 in 1.8 mi South 6.9 mph - 0.00 in Snow Light Snow
5:53 PM 32.0 °F 24.2 °F 32.0 °F 100% 29.81 in 1.5 mi South 9.2 mph - 0.00 in Snow Light Snow
6:05 PM 32.0 °F 24.8 °F 32.0 °F 100% 29.78 in 2.0 mi South 8.1 mph - 0.01 in Snow Light Snow
6:22 PM 32.0 °F 23.6 °F 32.0 °F 100% 29.78 in 3.0 mi SSW 10.4 mph - 0.01 in Snow Light Snow
6:53 PM 33.1 °F 25.5 °F 32.0 °F 96% 29.82 in 5.0 mi South 9.2 mph - 0.01 in   Overcast
7:53 PM 33.1 °F 25.5 °F 33.1 °F 100% 29.83 in 5.0 mi South 9.2 mph - 0.00 in   Overcast
8:53 PM 35.1 °F 29.3 °F 33.1 °F 92% 29.85 in 8.0 mi WSW 6.9 mph - 0.00 in   Overcast
9:29 PM 35.6 °F 28.6 °F 33.8 °F 93% 29.83 in 8.0 mi SW 9.2 mph - N/A   Overcast
9:53 PM 34.0 °F 27.2 °F 33.1 °F 96% 29.86 in 8.0 mi SW 8.1 mph - N/A   Mostly Cloudy
10:53 PM 34.0 °F 27.2 °F 33.1 °F 96% 29.88 in 7.0 mi SW 8.1 mph - N/A   Mostly Cloudy
11:15 PM 33.8 °F 27.7 °F 32.0 °F 93% 29.87 in 7.0 mi SW 6.9 mph - N/A   Scattered Clouds
11:53 PM 35.1 °F 28.6 °F 33.1 °F 92% 29.91 in 7.0 mi SW 8.1 mph - N/A   Overcast